Location: Bittkow
(50.3000°N, 19.0000°E)
Time: 01:54:46
(UTC+00:00)

CZ-4C R/B - Pass Details

Date: 19 September 2020
Orbit: 626 x 1376 km, 63.4° (Epoch: 30 October)

Event Time Altitude Azimuth Distance (km) Brightness Sun altitude
Exits shadow 00:47:09 18° 314° (NW) 2,076 4.2 -31.4°
Maximum altitude 00:50:11 26° 355° (N) 1,820 4.3 -31.1°
Drops below altitude 10° 00:55:54 10° 50° (NE) 2,970 5.9 -30.5°
Sets 00:59:22 0° 62° (ENE) 4,062 6.7 -30.1°
